Location: Izdebno
(52.6670°N, 16.2170°E)
Time: 18:08:00
(UTC+02:00)

Vanguard 2 - Pass Details

Date: 29 September 2023
Orbit: 552 x 2910 km, 32.9° (Epoch: 02 October)

Event Time Altitude Azimuth Distance (km) Brightness Sun altitude
Rises 18:42:21 0° 219° (SW) 6,690 13.0 -1.5°
Reaches altitude 10° 18:48:24 10° 207° (SSW) 5,477 12.3 -2.4°
Maximum altitude 18:59:07 23° 164° (SSE) 3,895 11.0 -4.1°
Drops below altitude 10° 19:07:26 10° 119° (ESE) 4,152 10.7 -5.3°
Enters shadow 19:09:37 - 110° (ESE) 4,487 10.8 -5.7°
